Time,TemperatureF,DewpointF,PressureIn,WindDirection,WindDirectionDegrees,WindSpeedMPH,WindSpeedGustMPH,Humidity,HourlyPrecipIn,Conditions,Clouds,dailyrainin,SoftwareType,DateUTC
2013-03-18 00:03:00,27.7,18.9,30.35,North,0,1.1,2.9,69,0.00,,,0.00,WUHU216HW,2013-03-18 04:03:00,
2013-03-18 00:18:00,27.7,18.5,30.33,NNE,23,4.0,4.0,68,0.00,,,0.00,WUHU216HW,2013-03-18 04:18:00,
2013-03-18 00:33:00,27.7,18.2,30.32,ESE,113,0.4,4.0,67,0.00,,,0.00,WUHU216HW,2013-03-18 04:33:00,
2013-03-18 00:48:00,27.7,18.2,30.32,East,90,1.1,2.7,67,0.00,,,0.00,WUHU216HW,2013-03-18 04:48:00,
2013-03-18 01:03:00,27.7,18.2,30.32,East,90,1.6,2.9,67,0.00,,,0.00,WUHU216HW,2013-03-18 05:03:00,
2013-03-18 01:18:00,27.7,18.2,30.31,East,90,0.9,2.2,67,0.00,,,0.00,WUHU216HW,2013-03-18 05:18:00,
2013-03-18 01:35:00,27.5,18.4,30.30,East,90,1.1,2.0,68,0.00,,,0.00,WUHU216HW,2013-03-18 05:35:00,
2013-03-18 01:50:00,27.5,18.4,30.29,East,90,0.2,1.3,68,0.00,,,0.00,WUHU216HW,2013-03-18 05:50:00,
2013-03-18 02:05:00,27.5,18.4,30.29,ESE,113,1.1,1.8,68,0.00,,,0.00,WUHU216HW,2013-03-18 06:05:00,
2013-03-18 02:20:00,27.9,18.7,30.28,ENE,68,1.3,1.8,68,0.00,,,0.00,WUHU216HW,2013-03-18 06:20:00,
2013-03-18 02:35:00,28.1,18.9,30.28,East,90,1.1,2.9,68,0.00,,,0.00,WUHU216HW,2013-03-18 06:35:00,
2013-03-18 02:50:00,28.4,19.3,30.28,East,90,1.6,1.8,68,0.00,,,0.00,WUHU216HW,2013-03-18 06:50:00,
2013-03-18 03:05:00,28.8,19.6,30.27,SE,135,2.0,3.4,68,0.00,,,0.00,WUHU216HW,2013-03-18 07:05:00,
2013-03-18 03:20:00,29.2,19.9,30.27,ENE,68,1.8,3.8,68,0.00,,,0.00,WUHU216HW,2013-03-18 07:20:00,
2013-03-18 03:35:00,29.5,19.9,30.26,SSE,158,2.0,2.9,67,0.00,,,0.00,WUHU216HW,2013-03-18 07:35:00,
2013-03-18 03:50:00,29.9,20.2,30.25,East,90,4.3,4.3,67,0.00,,,0.00,WUHU216HW,2013-03-18 07:50:00,
2013-03-18 04:06:00,30.2,20.2,30.23,NE,45,3.4,4.9,66,0.00,,,0.00,WUHU216HW,2013-03-18 08:06:00,
2013-03-18 04:21:00,30.4,20.3,30.20,ESE,113,1.6,4.9,66,0.00,,,0.00,WUHU216HW,2013-03-18 08:21:00,
2013-03-18 04:36:00,30.6,20.5,30.19,NNW,338,2.5,6.0,66,0.00,,,0.00,WUHU216HW,2013-03-18 08:36:00,
2013-03-18 04:51:00,30.6,20.5,30.18,SE,135,3.1,4.7,66,0.00,,,0.00,WUHU216HW,2013-03-18 08:51:00,
2013-03-18 05:06:00,30.6,20.5,30.18,ESE,113,4.7,7.2,66,0.00,,,0.00,WUHU216HW,2013-03-18 09:06:00,
2013-03-18 05:21:00,31.0,20.9,30.18,ESE,113,0.9,5.4,66,0.00,,,0.00,WUHU216HW,2013-03-18 09:21:00,
2013-03-18 05:36:00,31.3,21.2,30.17,SSE,158,3.8,6.5,66,0.00,,,0.00,WUHU216HW,2013-03-18 09:36:00,
2013-03-18 05:51:00,31.3,21.6,30.17,SE,135,4.5,5.1,67,0.00,,,0.00,WUHU216HW,2013-03-18 09:51:00,
2013-03-18 06:07:00,31.7,21.6,30.18,ESE,113,3.4,7.8,66,0.00,,,0.00,WUHU216HW,2013-03-18 10:07:00,
2013-03-18 06:22:00,32.0,22.3,30.18,East,90,4.7,7.8,67,0.00,,,0.00,WUHU216HW,2013-03-18 10:22:00,
2013-03-18 06:37:00,32.4,22.7,30.17,ESE,113,6.3,6.9,67,0.00,,,0.00,WUHU216HW,2013-03-18 10:37:00,
2013-03-18 06:52:00,32.8,23.0,30.15,SSE,158,4.0,7.2,67,0.00,,,0.00,WUHU216HW,2013-03-18 10:52:00,
2013-03-18 07:07:00,32.8,23.0,30.14,ESE,113,6.0,6.0,67,0.00,,,0.00,WUHU216HW,2013-03-18 11:07:00,
2013-03-18 07:22:00,33.1,23.3,30.12,South,180,3.4,9.2,67,0.00,,,0.00,WUHU216HW,2013-03-18 11:22:00,
2013-03-18 07:37:00,33.3,24.6,30.11,East,90,4.9,8.9,70,0.00,,,0.00,WUHU216HW,2013-03-18 11:37:00,
2013-03-18 07:52:00,33.1,25.4,30.10,East,90,3.1,5.6,73,0.00,,,0.00,WUHU216HW,2013-03-18 11:52:00,
2013-03-18 08:07:00,32.9,26.2,30.09,ESE,113,4.0,7.4,76,0.00,,,0.00,WUHU216HW,2013-03-18 12:07:00,
2013-03-18 08:22:00,32.8,26.6,30.07,SE,135,4.9,9.8,78,0.00,,,0.00,WUHU216HW,2013-03-18 12:22:00,
2013-03-18 08:37:00,32.9,27.7,30.06,SE,135,7.4,11.4,81,0.00,,,0.00,WUHU216HW,2013-03-18 12:37:00,
2013-03-18 08:52:00,32.9,28.4,30.05,ENE,68,3.1,6.5,83,0.00,,,0.00,WUHU216HW,2013-03-18 12:52:00,
2013-03-18 09:07:00,33.3,29.5,30.04,SSE,158,3.1,6.3,86,0.00,,,0.00,WUHU216HW,2013-03-18 13:07:00,
2013-03-18 09:22:00,33.5,29.7,30.05,SE,135,3.4,6.3,86,0.00,,,0.00,WUHU216HW,2013-03-18 13:22:00,
2013-03-18 09:37:00,33.7,30.2,30.04,East,90,2.9,7.2,87,0.00,,,0.00,WUHU216HW,2013-03-18 13:37:00,
2013-03-18 09:52:00,33.8,30.6,30.04,SE,135,4.7,4.9,88,0.00,,,0.00,WUHU216HW,2013-03-18 13:52:00,
2013-03-18 10:07:00,34.2,31.0,30.02,SE,135,4.9,7.6,88,0.00,,,0.00,WUHU216HW,2013-03-18 14:07:00,
2013-03-18 10:22:00,34.6,31.6,30.00,South,180,3.4,7.4,89,0.00,,,0.00,WUHU216HW,2013-03-18 14:22:00,
2013-03-18 10:38:00,34.7,31.5,29.99,SSE,158,4.0,6.0,88,0.01,,,0.01,WUHU216HW,2013-03-18 14:38:00,
2013-03-18 10:53:00,35.1,31.9,29.97,SE,135,3.4,9.2,88,0.01,,,0.01,WUHU216HW,2013-03-18 14:53:00,
2013-03-18 11:08:00,35.6,32.0,29.97,ENE,68,6.3,11.4,87,0.01,,,0.01,WUHU216HW,2013-03-18 15:08:00,
2013-03-18 11:23:00,35.8,32.2,29.99,SW,225,4.5,7.4,87,0.01,,,0.01,WUHU216HW,2013-03-18 15:23:00,
2013-03-18 11:38:00,35.8,32.6,29.99,WSW,248,3.1,7.8,88,0.00,,,0.01,WUHU216HW,2013-03-18 15:38:00,
2013-03-18 11:53:00,35.8,32.2,29.99,ESE,113,2.9,5.1,87,0.00,,,0.01,WUHU216HW,2013-03-18 15:53:00,
2013-03-18 12:08:00,36.0,32.1,29.98,South,180,6.3,9.6,86,0.00,,,0.01,WUHU216HW,2013-03-18 16:08:00,
2013-03-18 12:23:00,36.2,32.0,29.97,SE,135,6.9,11.4,85,0.00,,,0.01,WUHU216HW,2013-03-18 16:23:00,
2013-03-18 12:38:00,36.2,32.0,29.96,SE,135,5.6,11.6,85,0.00,,,0.01,WUHU216HW,2013-03-18 16:38:00,
2013-03-18 12:53:00,36.2,32.3,29.95,SE,135,3.4,6.3,86,0.00,,,0.01,WUHU216HW,2013-03-18 16:53:00,
2013-03-18 13:08:00,36.4,32.2,29.94,SW,225,8.5,10.3,85,0.00,,,0.01,WUHU216HW,2013-03-18 17:08:00,
2013-03-18 13:23:00,36.5,32.4,29.94,ESE,113,8.1,8.1,85,0.00,,,0.01,WUHU216HW,2013-03-18 17:23:00,
2013-03-18 13:38:00,36.5,32.4,29.93,SSE,158,10.1,10.1,85,0.00,,,0.01,WUHU216HW,2013-03-18 17:38:00,
2013-03-18 13:53:00,36.5,32.4,29.93,ENE,68,6.5,8.1,85,0.00,,,0.01,WUHU216HW,2013-03-18 17:53:00,
2013-03-18 14:08:00,36.9,33.0,29.91,SE,135,3.4,7.6,86,0.00,,,0.01,WUHU216HW,2013-03-18 18:08:00,
2013-03-18 14:23:00,37.1,33.2,29.89,SE,135,6.9,6.9,86,0.00,,,0.01,WUHU216HW,2013-03-18 18:23:00,
2013-03-18 14:39:00,36.9,33.0,29.89,SE,135,5.6,9.2,86,0.00,,,0.01,WUHU216HW,2013-03-18 18:39:00,
2013-03-18 14:54:00,37.1,33.2,29.87,SE,135,6.5,7.8,86,0.00,,,0.01,WUHU216HW,2013-03-18 18:54:00,
2013-03-18 15:09:00,37.1,33.5,29.85,SSE,158,6.3,8.9,87,0.00,,,0.01,WUHU216HW,2013-03-18 19:09:00,
2013-03-18 15:24:00,37.1,33.5,29.85,SE,135,7.6,12.1,87,0.00,,,0.01,WUHU216HW,2013-03-18 19:24:00,
2013-03-18 15:39:00,37.1,33.5,29.83,SSE,158,7.6,10.5,87,0.00,,,0.01,WUHU216HW,2013-03-18 19:39:00,
2013-03-18 15:54:00,37.6,34.7,29.81,ESE,113,4.7,6.7,89,0.00,,,0.01,WUHU216HW,2013-03-18 19:54:00,
2013-03-18 16:09:00,37.6,34.7,29.80,SE,135,5.6,11.2,89,0.00,,,0.01,WUHU216HW,2013-03-18 20:09:00,
2013-03-18 16:24:00,37.8,34.8,29.80,SSW,203,5.4,7.6,89,0.00,,,0.01,WUHU216HW,2013-03-18 20:24:00,
2013-03-18 16:39:00,38.0,34.8,29.80,SE,135,8.3,8.5,88,0.00,,,0.01,WUHU216HW,2013-03-18 20:39:00,
2013-03-18 16:54:00,38.2,35.2,29.80,SE,135,6.9,8.7,89,0.00,,,0.01,WUHU216HW,2013-03-18 20:54:00,
2013-03-18 17:09:00,38.5,35.6,29.78,South,180,10.3,10.3,89,0.00,,,0.01,WUHU216HW,2013-03-18 21:09:00,
2013-03-18 17:24:00,38.5,35.8,29.79,South,180,4.9,12.1,90,0.01,,,0.02,WUHU216HW,2013-03-18 21:24:00,
2013-03-18 17:39:00,38.7,36.0,29.78,ESE,113,5.4,7.6,90,0.01,,,0.02,WUHU216HW,2013-03-18 21:39:00,
2013-03-18 17:54:00,39.2,36.5,29.78,ESE,113,5.8,7.8,90,0.01,,,0.02,WUHU216HW,2013-03-18 21:54:00,
2013-03-18 18:09:00,39.4,37.0,29.76,SSE,158,8.5,8.5,91,0.00,,,0.02,WUHU216HW,2013-03-18 22:09:00,
2013-03-18 18:24:00,39.8,37.4,29.76,East,90,7.2,7.2,91,0.00,,,0.02,WUHU216HW,2013-03-18 22:24:00,
2013-03-18 18:39:00,40.1,37.7,29.76,SE,135,6.0,8.9,91,0.00,,,0.02,WUHU216HW,2013-03-18 22:39:00,
2013-03-18 18:54:00,40.3,37.9,29.75,SSE,158,4.0,9.4,91,0.00,,,0.02,WUHU216HW,2013-03-18 22:54:00,
2013-03-18 19:10:00,40.7,38.5,29.76,South,180,4.3,7.4,92,0.00,,,0.02,WUHU216HW,2013-03-18 23:10:00,
2013-03-18 19:25:00,41.0,38.9,29.76,ESE,113,4.0,7.8,92,0.00,,,0.02,WUHU216HW,2013-03-18 23:25:00,
2013-03-18 19:40:00,41.4,39.2,29.78,SE,135,4.0,5.8,92,0.00,,,0.02,WUHU216HW,2013-03-18 23:40:00,
2013-03-18 19:55:00,41.8,39.6,29.77,ENE,68,3.4,8.1,92,0.01,,,0.03,WUHU216HW,2013-03-18 23:55:00,
2013-03-18 20:10:00,42.1,40.0,29.78,ESE,113,7.8,7.8,92,0.01,,,0.03,WUHU216HW,2013-03-19 00:10:00,
2013-03-18 20:25:00,42.3,40.4,29.78,SE,135,9.8,9.8,93,0.01,,,0.03,WUHU216HW,2013-03-19 00:25:00,
2013-03-18 20:40:00,42.5,40.6,29.78,SSW,203,2.9,6.0,93,0.00,,,0.03,WUHU216HW,2013-03-19 00:40:00,
2013-03-18 20:55:00,42.7,40.8,29.79,SE,135,3.1,4.3,93,0.00,,,0.03,WUHU216HW,2013-03-19 00:55:00,
2013-03-18 21:10:00,42.8,41.0,29.80,SSE,158,2.5,6.3,93,0.01,,,0.04,WUHU216HW,2013-03-19 01:10:00,
2013-03-18 21:25:00,43.0,41.1,29.81,South,180,1.3,5.4,93,0.02,,,0.05,WUHU216HW,2013-03-19 01:25:00,
2013-03-18 21:40:00,43.2,41.0,29.81,SSE,158,0.0,1.3,92,0.03,,,0.06,WUHU216HW,2013-03-19 01:40:00,
2013-03-18 21:55:00,44.3,42.4,29.82,West,270,1.6,1.6,93,0.03,,,0.07,WUHU216HW,2013-03-19 01:55:00,
2013-03-18 22:10:00,43.4,41.5,29.82,SW,225,1.3,2.7,93,0.02,,,0.07,WUHU216HW,2013-03-19 02:10:00,
2013-03-18 22:25:00,42.8,40.7,29.83,NNW,338,2.5,4.0,92,0.01,,,0.07,WUHU216HW,2013-03-19 02:25:00,
2013-03-18 22:40:00,42.7,40.2,29.83,WNW,293,1.8,4.0,91,0.00,,,0.07,WUHU216HW,2013-03-19 02:40:00,
2013-03-18 22:55:00,42.7,40.2,29.84,South,180,3.4,3.4,91,0.00,,,0.07,WUHU216HW,2013-03-19 02:55:00,
2013-03-18 23:10:00,42.5,39.8,29.84,West,270,0.4,4.0,90,0.00,,,0.07,WUHU216HW,2013-03-19 03:10:00,
2013-03-18 23:26:00,42.5,39.8,29.85,SE,135,0.7,4.0,90,0.00,,,0.07,WUHU216HW,2013-03-19 03:26:00,
2013-03-18 23:41:00,42.1,39.4,29.86,NNW,338,0.4,3.8,90,0.00,,,0.07,WUHU216HW,2013-03-19 03:41:00,
2013-03-18 23:56:00,42.1,38.5,29.86,West,270,1.1,2.5,87,0.00,,,0.07,WUHU216HW,2013-03-19 03:56:00,